Regional Weather Roundup
Issued by NWS

Home | Current Version | Previous Version | Graphics & Text | Print | Product List | Glossary On
Versions: 1 2 3 4 5 6 7 8 9 10 11 12 13 14 15 16 17 18 19 20 21 22 23 24 25 26 27 28 29 30 31 32 33 34 35 36 37 38 39 40 41 42 43 44 45 46 47 48 49 50
000
ASUS43 KOAX 300902
RWRNE

WEATHER ROUNDUP FOR NEBRASKA
NATIONAL WEATHER SERVICE OMAHA NE
400 AM CDT THU MAR 30 2017

NOTES: SATELLITE DATA IS BEING USED TO AUGMENT CLOUD COVER ABOVE
       12000 FEET.
       "FAIR" INDICATES FEW OR NO CLOUDS BELOW 12,000 FEET WITH NO
       SIGNIFICANT WEATHER AND/OR OBSTRUCTIONS TO VISIBILITY.

  * THESE STATIONS DO NOT REPORT WEATHER SUCH AS RAIN...SNOW OR FOG.

NEZ001>004-019>022-054>056-301000-
NEBRASKA PANHANDLE

CITY           SKY/WX    TMP DP  RH WIND       PRES   REMARKS
SCOTTSBLUFF    CLEAR     34  30  85 NE3       29.86F
ALLIANCE       CLEAR     27  26  96 W5        29.86F WCI  22
CHADRON        CLEAR     33  31  92 CALM      29.86F
KIMBALL        CLEAR     32  32 100 W7        29.87F WCI  26
SIDNEY         CLEAR     31  30  96 W5        29.86F WCI  26
$$

NEZ057>060-069>072-079>082-301000-
SOUTHWEST NEBRASKA

CITY           SKY/WX    TMP DP  RH WIND       PRES   REMARKS
NORTH PLATTE   CLOUDY    40  33  76 N12       29.85F WCI  33
IMPERIAL       CLOUDY    36  34  92 N12       29.87F WCI  28
LEXINGTON      CLOUDY    38  34  87 N24       29.83F WCI  26
MCCOOK         CLOUDY    39  36  89 N13       29.83F WCI  31
OGALLALA       CLOUDY    37  36  96 NW7       29.88S FOG     WCI  32
$$

NEZ005>010-023>029-035>040-094-301000-
NORTH CENTRAL NEBRASKA

CITY           SKY/WX    TMP DP  RH WIND       PRES   REMARKS
VALENTINE      CLOUDY    36  33  89 NE7       29.89F WCI  30
AINSWORTH      CLOUDY    36  36 100 NE9       29.88F WCI  29
BROKEN BOW     CLOUDY    37  33  85 N20       29.83F WCI  27
O`NEILL        CLOUDY    37  37  98 N10       29.88F FOG     WCI  30
ORD            CLOUDY    37  34  89 N14       29.83F WCI  28
THEDFORD       CLOUDY    38  33  81 N9        29.87F WCI  32
$$

NEZ041-046>049-061>064-073>077-083>087-301000-
SOUTH CENTRAL NEBRASKA

CITY           SKY/WX    TMP DP  RH WIND       PRES   REMARKS
GRAND ISLAND   CLOUDY    37  37 100 N20       29.79S WCI  27
AURORA         CLOUDY    38  38  99 N22       29.77S WCI  27
HASTINGS       CLOUDY    38  35  89 N23G33    29.78S WCI  27
HEBRON         CLOUDY    40  38  94 N18G26    29.69S WCI  30
HOLDREGE       CLOUDY    37  35  92 N16G22    29.81S WCI  27
KEARNEY *      CLOUDY    37  34  87 N16       29.81F WCI  28
YORK           CLOUDY    37  37 100 N21G29    29.74F FOG     WCI  27
$$

NEZ011>018-030>034-042>045-301000-
NORTHEAST NEBRASKA

CITY           SKY/WX    TMP DP  RH WIND       PRES   REMARKS
NORFOLK        CLOUDY    38  35  89 NE15      29.80F WCI  29
ALBION         CLOUDY    39  36  87 N15G22    29.81F WCI  31
BLAIR          CLOUDY    41  39  95 NE17G24   29.71F FOG
FREMONT        CLOUDY    40  40 100 N9        29.74F FOG     WCI  34
TEKAMAH        CLOUDY    41  38  89 N16       29.76F
WAYNE          CLOUDY    38  38  99 NE15G22   29.81S WCI  30
$$

NEZ050>053-065>068-078-088>093-301000-
SOUTHEAST NEBRASKA

CITY           SKY/WX    TMP DP  RH WIND       PRES   REMARKS
LINCOLN        LGT RAIN  41  40  96 N17       29.71F FOG
OMAHA EPPLEY   CLOUDY    43  38  82 NE13      29.71F
BEATRICE       RAIN      42  42 100 N16G23    29.65S
FALLS CITY     CLOUDY    48  46  93 NE9       29.59F
NEBRASKA CITY  DRIZZLE   43  43 100 N20       29.64F
PLATTSMOUTH    CLOUDY    42  39  88 N12G20    29.67F
$$

NEZ044-045-051>053-067-301000-
OMAHA AREA

CITY           SKY/WX    TMP DP  RH WIND       PRES   REMARKS
OMAHA EPPLEY   CLOUDY    43  38  82 NE13      29.71F
BLAIR          CLOUDY    41  39  95 NE17G24   29.71F FOG
FREMONT        CLOUDY    40  40 100 N9        29.74F FOG     WCI  34
MILLARD        CLOUDY    44  42  91 N9        29.71F
OFFUTT AFB     CLOUDY    43  40  91 N16       29.69F
PLATTSMOUTH    CLOUDY    42  39  88 N12G20    29.67F
WAHOO          CLOUDY    40  39  95 N16G23    29.73S FOG     WCI  32
$$




USA.gov is the U.S. government's official web portal to all federal, state and local government web resources and services.